This demonstration page uses our WeatherBlox Daily Observations layout. Learn more.

Left ArrowRight Arrow

36.19886, -115.1175

Hourly Observations for May 15, 2021

Temp ( °F °C ) Dew Point ( °F °C ) Humidity (%) Winds ( mph kmh ) Pressure ( in mb ) Visibility ( mi km ) Precip ( " mm )
12:53 am 00:53 Clear 83 28.3 26 -3.3 12 12 SW 9 15 29.65 1004 10 16.0934 N/A
1:53 am 01:53 Clear 79 26.1 28 -2.2 15 15 SSE 9 15 29.64 1004 10 16.0934 N/A
2:53 am 02:53 Clear 79 26.1 27 -2.8 15 15 S 12 19 29.64 1004 10 16.0934 N/A
3:53 am 03:53 Clear 77 25 28 -2.2 16 16 SSE 10 17 29.64 1004 10 16.0934 N/A
4:53 am 04:53 Clear 76 24.4 28 -2.2 17 17 SSE 10 17 29.64 1004 10 16.0934 N/A
5:53 am 05:53 Sunny 76 24.4 27 -2.8 16 16 S 13 20 29.64 1004 10 16.0934 N/A
6:53 am 06:53 Sunny 76 24.4 27 -2.8 16 16 SE 6 9 29.66 1004 10 16.0934 N/A
7:53 am 07:53 Sunny 79 26.1 27 -2.8 15 15 SE 10 17 29.67 1005 10 16.0934 N/A
8:53 am 08:53 Sunny 83 28.3 27 -2.8 13 13 SSE 16 26 29.65 1004 10 16.0934 N/A
9:53 am 09:53 Sunny 87 30.6 27 -2.8 11 11 SSE 21 33 29.63 1004 10 16.0934 N/A
10:53 am 10:53 Sunny 90 32.2 26 -3.3 10 10 S 23 37 29.62 1003 10 16.0934 N/A
11:53 am 11:53 Sunny 90 32.2 27 -2.8 10 10 S 24 39 29.63 1003 10 16.0934 N/A
12:53 pm 12:53 Sunny 92 33.3 22 -5.6 8 8 SSW 20 31 29.62 1003 10 16.0934 N/A
1:53 pm 13:53 Sunny 92 33.3 19 -7.2 7 7 SW 21 33 29.6 1002 10 16.0934 N/A
2:53 pm 14:53 Sunny 93 33.9 19 -7.2 7 7 SSW 16 26 29.56 1001 10 16.0934 N/A
3:53 pm 15:53 Sunny 93 33.9 19 -7.2 7 7 SW 20 31 29.54 1000 10 16.0934 N/A
4:53 pm 16:53 Sunny 94 34.4 21 -6.1 7 7 SSE 10 17 29.51 999 10 16.0934 N/A
5:53 pm 17:53 Sunny 93 33.9 16 -8.9 6 6 SSW 18 30 29.5 999 10 16.0934 N/A
6:53 pm 18:53 Sunny 90 32.2 19 -7.2 7 7 SW 21 33 29.5 999 10 16.0934 N/A
7:53 pm 19:53 Clear 86 30 15 -9.4 7 7 SW 15 24 29.53 1000 10 16.0934 N/A
8:53 pm 20:53 Clear 83 28.3 13 -10.6 7 7 SW 14 22 29.56 1001 10 16.0934 N/A
9:53 pm 21:53 Clear 81 27.2 15 -9.4 8 8 SW 17 28 29.6 1002 10 16.0934 N/A
10:53 pm 22:53 Clear 78 25.6 21 -6.1 12 12 WSW 13 20 29.61 1003 10 16.0934 N/A
11:53 pm 23:53 Clear 76 24.4 23 -5 14 14 SW 6 9 29.62 1003 10 16.0934 N/A

Powered by AerisWeather